Weather Roundup
Issued by NWS

Home | Current Version | Previous Version | Graphics & Text | Print | Product List | Glossary Off
Versions: 1 2 3 4 5 6 7 8 9 10 11 12 13 14 15 16 17 18 19 20 21 22 23 24 25 26 27 28 29 30 31 32 33 34 35 36 37 38 39 40 41 42 43 44 45 46 47 48 49 50

000
NZUS93 KARX 280810
HRRWXR

CURRENT HOURLY OBSERVATIONS ACROSS
MUCH OF THE UPPER MISSISSIPPI VALLEY
NATIONAL WEATHER SERVICE LA CROSSE WI
300 AM CDT THU APR 28 2016


...SOUTHEAST MINNESOTA...


CITY           SKY/WX    TMP DP  RH WIND       PRES   REMARKS
ROCHESTER      CLOUDY    39  32  76 E18       29.79R WCI  30
ROCHESTER/MAYO CLOUDY    40  31  70 NE14G22   29.79F WCI  32
WINONA         CLOUDY    43  30  61 E10G17    29.84F
AUSTIN         CLOUDY    39  34  81 E9        29.78R WCI  33
ALBERT LEA     CLOUDY    39  39 100 E13       29.76S WCI  32
DODGE CENTER   CLOUDY    37  36  93 NE15      29.79R WCI  28
PRESTON        CLOUDY    38  30  72 E15G26    29.77S WCI  30
OWATONNA       CLOUDY    39  34  81 E20       29.80F WCI  30
FARIBAULT      CLOUDY    39  36  87 NE10G16   29.83F WCI  32
$$

...ELSEWHERE IN MINNESOTA...


CITY           SKY/WX    TMP DP  RH WIND       PRES   REMARKS
MINNEAPOLIS    CLOUDY    42  33  70 NE12      29.88F
INTNL FALLS    CLOUDY    39  18  42 E8        30.07F WCI  33
DULUTH         CLOUDY    37  17  44 E15       30.02S WCI  28
RED WING       CLOUDY    41  32  70 E14G23    29.84F
REDWOOD FALLS  RAIN      39  37  92 E10       29.85R FOG     WCI  32
MANKATO        CLOUDY    39  36  87 NE16G22   29.82S WCI  30
WORTHINGTON    LGT RAIN  39  38  96 NE18      29.77S WCI  30
FAIRMONT       CLOUDY    39  32  75 NE14      29.77S WCI  31
$$

...SOUTHWEST WISCONSIN...


CITY           SKY/WX    TMP DP  RH WIND       PRES   REMARKS
LA CROSSE      CLOUDY    43  30  60 E6        29.83F
PRAIRIE DU CHI MOCLDY    43  33  67 E9G17     29.76F
BOSCOBEL       MOCLDY    45  31  58 NE14G25   29.79F
LONE ROCK      LGT RAIN  41  34  76 NE12      29.85S
PLATTEVILLE    CLOUDY    42  40  93 E23G29    29.73F
FORT MC COY    CLOUDY    42  30  61 E9        29.87R
CAMP DOUGLAS   CLOUDY    43  25  49 E12G20    29.86S
MAUSTON-NEW LI CLOUDY    44  24  45 E8G16     29.86S
VIROQUA        CLOUDY    39  31  71 E22       29.80F WCI  29
WIS DELLS      CLOUDY    42  26  52 E12G18    29.86R
$$

...ELSEWHERE IN WISCONSIN...


CITY           SKY/WX    TMP DP  RH WIND       PRES   REMARKS
MILWAUKEE      CLOUDY    44  38  79 E13       29.87F
MADISON        CLOUDY    44  31  60 NE10      29.84R
GREEN BAY      CLOUDY    41  25  53 NE20      29.97S
EAU CLAIRE     CLOUDY    41  35  79 NE7       29.89F
BLACK RVR FLS  CLOUDY    42  26  52 E8G16     29.86S
MEDFORD        MOCLDY    39  14  36 E12       29.92F WCI  31
WAUSAU         CLOUDY    41  12  30 NE16G22   29.94F
WIS RAPIDS     CLOUDY    42  18  37 E18G33    29.92S
MARSHFIELD     CLOUDY    42  16  34 E23G29    29.89F
RICE LAKE      LGT RAIN  42  26  53 N7        29.94F
$$

...NORTHEAST IOWA...


CITY           SKY/WX    TMP DP  RH WIND       PRES   REMARKS
WATERLOO       CLOUDY    44  41  89 E8        29.72R
DUBUQUE        CLOUDY    44  41  89 E18G30    29.71F
DECORAH        CLOUDY    41  34  75 E15G23    29.74S
MASON CITY     CLOUDY    42  40  92 NE14      29.75S
CHARLES CITY   CLOUDY    43  43 100 E10       29.75R
OELWEIN        CLOUDY    43  43 100 E13       29.72R
$$

...ELSEWHERE IN IOWA...


CITY           SKY/WX    TMP DP  RH WIND       PRES   REMARKS
DES MOINES     MOCLDY    47  40  76 S6        29.66R
IOWA CITY      CLOUDY    50  48  93 E5        29.70F FOG
FORT DODGE     CLOUDY    45  39  81 NE13      29.68S
MARSHALLTOWN   CLOUDY    48  46  93 S5        29.69R
CEDAR RAPIDS   CLOUDY    47  32  56 E8        29.69R FOG
$$

...NORTHERN ILLINOIS...


CITY           SKY/WX    TMP DP  RH WIND       PRES   REMARKS
CHICAGO-OHARE  LGT RAIN  44  42  93 NE14      29.82S FOG
CHICAGO-MIDWAY CLOUDY    46  42  86 NE9       29.82R THUNDER
MOLINE         MOCLDY    50  47  89 E9        29.68R
ROCKFORD       TSTM      46  43  89 E10       29.83R FOG
PEORIA         CLOUDY    53  51  93 E8        29.69R
$$

NOTE: "FAIR" INDICATES FEW OR NO CLOUDS BELOW 12,000 FEET WITH NO
SIGNIFICANT WEATHER AND/OR OBSTRUCTIONS TO VISIBILITY. WIND
SPEEDS ARE IN MILES-PER-HOUR.




USA.gov is the U.S. government's official web portal to all federal, state and local government web resources and services.